Time,TemperatureF,DewpointF,PressureIn,WindDirection,WindDirectionDegrees,WindSpeedMPH,WindSpeedGustMPH,Humidity,HourlyPrecipIn,Conditions,Clouds,dailyrainin,SolarRadiationWatts/m^2,SoftwareType,DateUTC
2013-07-26 00:07:00,57.3,53.1,30.10,North,360,0.0,0.0,86,0.00,CLR,FEW,0.00,0.0,WeatherDisplay:10.37,2013-07-26 04:07:00,
2013-07-26 00:17:00,57.1,53.0,30.09,North,360,0.0,1.0,86,0.00,BKN,FEW,0.00,0.0,WeatherDisplay:10.37,2013-07-26 04:17:00,
2013-07-26 00:22:00,57.0,52.9,30.10,North,360,0.0,1.0,86,0.00,BKN,FEW,0.00,0.0,WeatherDisplay:10.37,2013-07-26 04:22:00,
2013-07-26 00:27:00,56.9,52.8,30.10,North,360,0.0,1.0,86,0.00,BKN,FEW,0.00,0.0,WeatherDisplay:10.37,2013-07-26 04:27:00,
2013-07-26 00:32:00,56.8,53.0,30.10,North,360,0.0,1.0,87,0.00,BKN,FEW,0.00,0.0,WeatherDisplay:10.37,2013-07-26 04:32:00,
2013-07-26 00:37:00,56.7,52.9,30.09,North,360,0.0,1.0,87,0.00,BKN,FEW,0.00,0.0,WeatherDisplay:10.37,2013-07-26 04:37:00,
2013-07-26 00:42:00,56.7,52.9,30.09,North,360,0.0,1.0,87,0.00,BKN,FEW,0.00,0.0,WeatherDisplay:10.37,2013-07-26 04:42:00,
2013-07-26 00:47:00,56.7,52.6,30.09,North,2,0.0,1.0,86,0.00,BKN,FEW,0.00,0.0,WeatherDisplay:10.37,2013-07-26 04:47:00,
2013-07-26 00:52:00,56.7,52.9,30.09,North,5,0.0,2.0,87,0.00,BKN,FEW,0.00,0.0,WeatherDisplay:10.37,2013-07-26 04:52:00,
2013-07-26 00:57:00,56.7,52.9,30.09,North,5,0.0,2.0,87,0.00,BKN,FEW,0.00,0.0,WeatherDisplay:10.37,2013-07-26 04:57:00,
2013-07-26 01:07:00,56.7,52.9,30.09,North,5,0.0,2.0,87,0.00,SCT,FEW,0.00,0.0,WeatherDisplay:10.37,2013-07-26 05:07:00,
2013-07-26 01:17:00,56.5,52.7,30.08,North,5,0.0,1.0,87,0.00,SCT,FEW,0.00,0.0,WeatherDisplay:10.37,2013-07-26 05:17:00,
2013-07-26 01:27:00,56.4,52.3,30.08,North,5,0.0,2.0,86,0.00,SCT,FEW,0.00,0.0,WeatherDisplay:10.37,2013-07-26 05:27:00,
2013-07-26 01:37:00,56.4,52.6,30.08,North,5,0.0,2.0,87,0.00,SCT,FEW,0.00,0.0,WeatherDisplay:10.37,2013-07-26 05:37:00,
2013-07-26 01:42:00,56.3,52.2,30.08,North,6,0.0,1.0,86,0.00,SCT,FEW,0.00,0.0,WeatherDisplay:10.37,2013-07-26 05:42:00,
2013-07-26 01:47:00,56.2,52.4,30.08,North,6,0.0,1.0,87,0.00,SCT,FEW,0.00,0.0,WeatherDisplay:10.37,2013-07-26 05:47:00,
2013-07-26 01:52:00,56.1,52.0,30.08,North,5,0.0,1.0,86,0.00,SCT,FEW,0.00,0.0,WeatherDisplay:10.37,2013-07-26 05:52:00,
2013-07-26 01:57:00,56.1,52.3,30.08,North,5,0.0,1.0,87,0.00,SCT,FEW,0.00,0.0,WeatherDisplay:10.37,2013-07-26 05:57:00,
2013-07-26 02:07:00,56.1,52.0,30.08,North,5,0.0,1.0,86,0.00,CLR,FEW,0.00,0.0,WeatherDisplay:10.37,2013-07-26 06:07:00,
2013-07-26 02:17:00,56.0,52.2,30.08,North,5,0.0,1.0,87,0.00,CLR,FEW,0.00,0.0,WeatherDisplay:10.37,2013-07-26 06:17:00,
2013-07-26 02:22:00,56.0,51.9,30.08,North,5,0.0,1.0,86,0.00,CLR,FEW,0.00,0.0,WeatherDisplay:10.37,2013-07-26 06:22:00,
2013-07-26 02:27:00,56.0,51.8,30.08,North,5,0.0,1.0,86,0.00,CLR,FEW,0.00,0.0,WeatherDisplay:10.37,2013-07-26 06:27:00,
2013-07-26 02:32:00,55.9,51.8,30.08,North,5,0.0,1.0,86,0.00,CLR,FEW,0.00,0.0,WeatherDisplay:10.37,2013-07-26 06:32:00,
2013-07-26 02:37:00,55.8,52.0,30.08,North,5,0.0,1.0,87,0.00,CLR,FEW,0.00,0.0,WeatherDisplay:10.37,2013-07-26 06:37:00,
2013-07-26 02:47:00,55.6,52.1,30.08,North,5,0.0,1.0,88,0.00,CLR,FEW,0.00,0.0,WeatherDisplay:10.37,2013-07-26 06:47:00,
2013-07-26 02:52:00,55.4,51.9,30.07,North,5,0.0,0.0,88,0.00,CLR,FEW,0.00,0.0,WeatherDisplay:10.37,2013-07-26 06:52:00,
2013-07-26 02:57:00,55.3,51.8,30.07,North,5,0.0,0.0,88,0.00,CLR,FEW,0.00,0.0,WeatherDisplay:10.37,2013-07-26 06:57:00,
2013-07-26 03:07:00,55.3,51.5,30.07,North,5,0.0,2.0,87,0.00,CLR,FEW,0.00,0.0,WeatherDisplay:10.37,2013-07-26 07:07:00,
2013-07-26 03:17:00,55.4,51.6,30.07,North,6,0.0,2.0,87,0.00,CLR,FEW,0.00,0.0,WeatherDisplay:10.37,2013-07-26 07:17:00,
2013-07-26 03:22:00,55.4,51.6,30.07,North,6,0.0,0.0,87,0.00,CLR,FEW,0.00,0.0,WeatherDisplay:10.37,2013-07-26 07:22:00,
2013-07-26 03:27:00,55.4,51.9,30.07,North,6,0.0,0.0,88,0.00,CLR,FEW,0.00,0.0,WeatherDisplay:10.37,2013-07-26 07:27:00,
2013-07-26 03:32:00,55.3,51.5,30.07,North,5,0.0,0.0,87,0.00,CLR,FEW,0.00,0.0,WeatherDisplay:10.37,2013-07-26 07:32:00,
2013-07-26 03:37:00,55.3,51.5,30.07,North,5,0.0,0.0,87,0.00,CLR,FEW,0.00,0.0,WeatherDisplay:10.37,2013-07-26 07:37:00,
2013-07-26 03:47:00,55.2,51.4,30.07,North,6,0.0,1.0,87,0.00,CLR,FEW,0.00,0.0,WeatherDisplay:10.37,2013-07-26 07:47:00,
2013-07-26 03:52:00,55.0,51.2,30.07,North,5,0.0,1.0,87,0.00,CLR,FEW,0.00,0.0,WeatherDisplay:10.37,2013-07-26 07:52:00,
2013-07-26 03:57:00,55.0,51.5,30.07,North,5,0.0,0.0,88,0.00,CLR,FEW,0.00,0.0,WeatherDisplay:10.37,2013-07-26 07:57:00,
2013-07-26 04:07:00,55.0,51.5,30.07,North,5,0.0,1.0,88,0.00,BKN,FEW,0.00,0.0,WeatherDisplay:10.37,2013-07-26 08:07:00,
2013-07-26 04:17:00,54.9,51.4,30.07,North,5,0.0,0.0,88,0.00,BKN,FEW,0.00,0.0,WeatherDisplay:10.37,2013-07-26 08:17:00,
2013-07-26 04:27:00,54.9,51.4,30.07,North,5,0.0,0.0,88,0.00,BKN,FEW,0.00,0.0,WeatherDisplay:10.37,2013-07-26 08:27:00,
2013-07-26 04:32:00,54.9,51.4,30.07,North,5,0.0,0.0,88,0.00,BKN,FEW,0.00,0.0,WeatherDisplay:10.37,2013-07-26 08:32:00,
2013-07-26 04:37:00,54.9,51.4,30.07,North,5,0.0,0.0,88,0.00,BKN,FEW,0.00,0.0,WeatherDisplay:10.37,2013-07-26 08:37:00,
2013-07-26 04:42:00,54.9,51.4,30.07,North,5,0.0,0.0,88,0.00,BKN,FEW,0.00,0.0,WeatherDisplay:10.37,2013-07-26 08:42:00,
2013-07-26 04:47:00,54.9,51.4,30.07,North,5,0.0,0.0,88,0.00,BKN,FEW,0.00,0.0,WeatherDisplay:10.37,2013-07-26 08:47:00,
2013-07-26 04:52:00,54.8,51.3,30.07,North,5,0.0,0.0,88,0.00,BKN,FEW,0.00,0.0,WeatherDisplay:10.37,2013-07-26 08:52:00,
2013-07-26 04:57:00,54.7,51.2,30.06,North,5,0.0,0.0,88,0.00,BKN,FEW,0.00,0.0,WeatherDisplay:10.37,2013-07-26 08:57:00,
2013-07-26 05:07:00,54.4,51.2,30.06,North,5,0.0,1.0,89,0.00,BKN,FEW,0.00,0.0,WeatherDisplay:10.37,2013-07-26 09:07:00,
2013-07-26 05:17:00,54.0,51.4,30.06,North,5,0.0,1.0,91,0.00,BKN,FEW,0.00,0.0,WeatherDisplay:10.37,2013-07-26 09:17:00,
2013-07-26 05:27:00,53.8,51.5,30.06,North,5,0.0,1.0,92,0.00,BKN,FEW,0.00,0.0,WeatherDisplay:10.37,2013-07-26 09:27:00,
2013-07-26 05:32:00,53.7,51.4,30.06,North,5,0.0,0.0,92,0.00,BKN,FEW,0.00,0.0,WeatherDisplay:10.37,2013-07-26 09:32:00,
2013-07-26 05:37:00,53.6,51.3,30.06,North,5,0.0,0.0,92,0.00,BKN,FEW,0.00,7.0,WeatherDisplay:10.37,2013-07-26 09:37:00,
2013-07-26 05:47:00,53.5,50.9,30.05,North,5,0.0,0.0,91,0.00,BKN,FEW,0.00,12.0,WeatherDisplay:10.37,2013-07-26 09:47:00,
2013-07-26 05:52:00,53.5,50.9,30.06,North,5,0.0,1.0,91,0.00,BKN,FEW,0.00,16.0,WeatherDisplay:10.37,2013-07-26 09:52:00,
2013-07-26 06:07:00,53.8,51.0,30.06,North,5,0.0,1.0,90,0.00,BKN,FEW,0.00,25.0,WeatherDisplay:10.37,2013-07-26 10:07:00,
2013-07-26 06:17:00,54.6,51.4,30.06,North,5,0.0,1.0,89,0.00,BKN,FEW,0.00,37.0,WeatherDisplay:10.37,2013-07-26 10:17:00,
2013-07-26 06:22:00,54.8,51.3,30.06,North,5,0.0,1.0,88,0.00,BKN,FEW,0.00,39.0,WeatherDisplay:10.37,2013-07-26 10:22:00,
2013-07-26 06:32:00,55.3,51.5,30.06,North,5,0.0,1.0,87,0.00,BKN,FEW,0.00,49.0,WeatherDisplay:10.37,2013-07-26 10:32:00,
2013-07-26 06:37:00,55.4,51.6,30.06,North,5,0.0,0.0,87,0.00,BKN,FEW,0.00,60.0,WeatherDisplay:10.37,2013-07-26 10:37:00,
2013-07-26 06:42:00,55.5,51.7,30.06,North,5,0.0,0.0,87,0.00,BKN,FEW,0.00,63.0,WeatherDisplay:10.37,2013-07-26 10:42:00,
2013-07-26 06:47:00,55.5,51.7,30.07,North,5,0.0,0.0,87,0.00,BKN,FEW,0.00,65.0,WeatherDisplay:10.37,2013-07-26 10:47:00,
2013-07-26 06:52:00,55.6,52.1,30.06,North,5,0.0,0.0,88,0.00,BKN,FEW,0.00,70.0,WeatherDisplay:10.37,2013-07-26 10:52:00,
2013-07-26 06:57:00,55.6,52.1,30.06,North,5,0.0,0.0,88,0.00,BKN,FEW,0.00,77.0,WeatherDisplay:10.37,2013-07-26 10:57:00,
2013-07-26 07:07:00,55.7,52.2,30.06,North,5,0.0,0.0,88,0.00,CLR,FEW,0.00,93.0,WeatherDisplay:10.37,2013-07-26 11:07:00,
2013-07-26 07:17:00,56.0,52.5,30.06,North,5,0.0,0.0,88,0.00,CLR,FEW,0.00,111.0,WeatherDisplay:10.37,2013-07-26 11:17:00,
2013-07-26 07:22:00,56.2,53.0,30.06,North,5,0.0,0.0,89,0.00,CLR,FEW,0.00,111.0,WeatherDisplay:10.37,2013-07-26 11:22:00,
2013-07-26 07:27:00,56.3,53.1,30.06,North,5,0.0,0.0,89,0.00,CLR,FEW,0.00,104.0,WeatherDisplay:10.37,2013-07-26 11:27:00,
2013-07-26 07:32:00,56.6,53.4,30.06,North,5,0.0,0.0,89,0.00,CLR,FEW,0.00,100.0,WeatherDisplay:10.37,2013-07-26 11:32:00,
2013-07-26 07:37:00,56.8,54.2,30.06,North,5,0.0,0.0,91,0.00,CLR,FEW,0.00,102.0,WeatherDisplay:10.37,2013-07-26 11:37:00,
2013-07-26 07:42:00,56.9,54.0,30.05,North,5,0.0,1.0,90,0.00,CLR,FEW,0.00,100.0,WeatherDisplay:10.37,2013-07-26 11:42:00,
2013-07-26 07:47:00,57.0,54.1,30.05,North,5,0.0,0.0,90,0.00,CLR,FEW,0.00,111.0,WeatherDisplay:10.37,2013-07-26 11:47:00,
2013-07-26 07:52:00,57.1,53.9,30.05,North,5,0.0,0.0,89,0.00,CLR,FEW,0.00,121.0,WeatherDisplay:10.37,2013-07-26 11:52:00,
2013-07-26 07:57:00,57.2,54.0,30.05,North,5,0.0,0.0,89,0.00,CLR,FEW,0.00,127.0,WeatherDisplay:10.37,2013-07-26 11:57:00,
2013-07-26 08:07:00,57.5,54.3,30.05,North,5,0.0,0.0,89,0.00,BKN,FEW,0.00,132.0,WeatherDisplay:10.37,2013-07-26 12:07:00,
2013-07-26 08:17:00,57.7,54.2,30.05,North,5,0.0,0.0,88,0.00,BKN,FEW,0.00,156.0,WeatherDisplay:10.37,2013-07-26 12:17:00,
2013-07-26 08:27:00,58.0,54.2,30.05,North,5,0.0,1.0,87,0.00,BKN,FEW,0.00,155.0,WeatherDisplay:10.37,2013-07-26 12:27:00,
2013-07-26 08:37:00,58.3,53.2,30.04,North,5,0.0,1.0,83,0.00,BKN,FEW,0.00,176.0,WeatherDisplay:10.37,2013-07-26 12:37:00,
2013-07-26 08:47:00,58.6,53.5,30.04,North,5,0.0,1.0,83,0.00,BKN,FEW,0.00,204.0,WeatherDisplay:10.37,2013-07-26 12:47:00,
2013-07-26 08:57:00,59.1,53.9,30.04,NNE,12,0.0,2.0,83,0.00,BKN,FEW,0.00,236.0,WeatherDisplay:10.37,2013-07-26 12:57:00,
2013-07-26 09:07:00,59.7,53.5,30.04,NE,49,0.0,3.0,80,0.00,CLR,FEW,0.00,243.0,WeatherDisplay:10.37,2013-07-26 13:07:00,
2013-07-26 09:17:00,60.3,54.1,30.04,NE,54,0.0,3.0,80,0.00,CLR,FEW,0.00,229.0,WeatherDisplay:10.37,2013-07-26 13:17:00,
2013-07-26 09:22:00,60.4,54.5,30.04,ENE,58,0.0,1.0,81,0.00,CLR,FEW,0.00,250.0,WeatherDisplay:10.37,2013-07-26 13:22:00,
2013-07-26 09:27:00,60.6,53.7,30.04,ENE,58,0.0,2.0,78,0.00,CLR,FEW,0.00,283.0,WeatherDisplay:10.37,2013-07-26 13:27:00,
2013-07-26 09:32:00,60.8,53.9,30.04,ENE,64,0.0,3.0,78,0.00,CLR,FEW,0.00,320.0,WeatherDisplay:10.37,2013-07-26 13:32:00,
2013-07-26 09:37:00,60.9,54.0,30.04,East,79,0.0,4.0,78,0.00,CLR,FEW,0.00,348.0,WeatherDisplay:10.37,2013-07-26 13:37:00,
2013-07-26 09:42:00,61.0,54.4,30.04,East,89,1.0,4.0,79,0.00,CLR,FEW,0.00,353.0,WeatherDisplay:10.37,2013-07-26 13:42:00,
2013-07-26 09:47:00,61.3,54.1,30.03,East,93,1.0,4.0,77,0.00,CLR,FEW,0.00,404.0,WeatherDisplay:10.37,2013-07-26 13:47:00,
2013-07-26 09:52:00,61.8,54.1,30.03,East,98,2.0,5.0,76,0.00,CLR,FEW,0.00,517.0,WeatherDisplay:10.37,2013-07-26 13:52:00,
2013-07-26 09:57:00,62.2,54.5,30.03,ESE,103,3.0,7.0,76,0.00,CLR,FEW,0.00,452.0,WeatherDisplay:10.37,2013-07-26 13:57:00,
2013-07-26 10:07:00,62.7,54.3,30.03,ESE,120,2.0,7.0,74,0.00,FEW,FEW,0.00,520.0,WeatherDisplay:10.37,2013-07-26 14:07:00,
2013-07-26 10:17:00,63.0,54.9,30.03,SE,126,3.0,7.0,75,0.00,FEW,FEW,0.00,485.0,WeatherDisplay:10.37,2013-07-26 14:17:00,
2013-07-26 10:22:00,63.0,54.9,30.03,ESE,122,0.0,6.0,75,0.00,FEW,FEW,0.00,490.0,WeatherDisplay:10.37,2013-07-26 14:22:00,
2013-07-26 10:27:00,63.3,55.6,30.03,ESE,118,1.0,7.0,76,0.00,FEW,FEW,0.00,441.0,WeatherDisplay:10.37,2013-07-26 14:27:00,
2013-07-26 10:32:00,63.3,55.3,30.03,ESE,116,0.0,5.0,75,0.00,FEW,FEW,0.00,578.0,WeatherDisplay:10.37,2013-07-26 14:32:00,
2013-07-26 10:37:00,63.8,55.4,30.03,SE,139,1.0,5.0,74,0.00,FEW,FEW,0.00,390.0,WeatherDisplay:10.37,2013-07-26 14:37:00,
2013-07-26 10:42:00,63.8,55.4,30.03,SE,136,0.0,5.0,74,0.00,FEW,FEW,0.00,464.0,WeatherDisplay:10.37,2013-07-26 14:42:00,
2013-07-26 10:52:00,64.0,56.3,30.03,ESE,118,1.0,5.0,76,0.00,FEW,FEW,0.00,599.0,WeatherDisplay:10.37,2013-07-26 14:52:00,
2013-07-26 10:57:00,64.5,56.8,30.03,ESE,120,1.0,5.0,76,0.00,FEW,FEW,0.00,482.0,WeatherDisplay:10.37,2013-07-26 14:57:00,
2013-07-26 11:07:00,65.4,56.1,30.02,East,95,1.0,6.0,72,0.00,OVC,FEW,0.00,415.0,WeatherDisplay:10.37,2013-07-26 15:07:00,
2013-07-26 11:17:00,64.7,55.8,30.01,ESE,115,1.0,5.0,73,0.00,OVC,FEW,0.00,476.0,WeatherDisplay:10.37,2013-07-26 15:17:00,
2013-07-26 11:22:00,64.6,55.7,30.02,ESE,117,2.0,6.0,73,0.00,OVC,FEW,0.00,392.0,WeatherDisplay:10.37,2013-07-26 15:22:00,
2013-07-26 11:27:00,64.3,55.8,30.02,ESE,110,2.0,5.0,74,0.00,OVC,FEW,0.00,439.0,WeatherDisplay:10.37,2013-07-26 15:27:00,
2013-07-26 11:32:00,64.4,55.9,30.02,ESE,109,5.0,8.0,74,0.00,OVC,FEW,0.00,540.0,WeatherDisplay:10.37,2013-07-26 15:32:00,
2013-07-26 11:37:00,64.6,56.1,30.01,ESE,117,2.0,9.0,74,0.00,OVC,FEW,0.00,585.0,WeatherDisplay:10.37,2013-07-26 15:37:00,
2013-07-26 11:47:00,65.5,56.2,30.01,ESE,118,5.0,8.0,72,0.00,OVC,FEW,0.00,526.0,WeatherDisplay:10.37,2013-07-26 15:47:00,
2013-07-26 11:57:00,65.7,56.4,30.01,ESE,122,0.0,4.0,72,0.00,OVC,FEW,0.00,531.0,WeatherDisplay:10.37,2013-07-26 15:57:00,
2013-07-26 12:07:00,66.1,56.4,30.01,SE,124,2.0,6.0,71,0.00,OVC,FEW,0.00,373.0,WeatherDisplay:10.37,2013-07-26 16:07:00,
2013-07-26 12:17:00,65.6,56.3,30.00,ESE,119,1.0,4.0,72,0.00,OVC,FEW,0.00,383.0,WeatherDisplay:10.37,2013-07-26 16:17:00,
2013-07-26 12:22:00,65.6,57.1,30.00,ESE,103,1.0,4.0,74,0.00,OVC,FEW,0.00,316.0,WeatherDisplay:10.37,2013-07-26 16:22:00,
2013-07-26 12:27:00,65.7,56.8,30.01,ESE,104,0.0,3.0,73,0.00,OVC,FEW,0.00,257.0,WeatherDisplay:10.37,2013-07-26 16:27:00,
2013-07-26 12:32:00,65.7,56.8,30.01,ESE,109,1.0,5.0,73,0.00,OVC,FEW,0.00,264.0,WeatherDisplay:10.37,2013-07-26 16:32:00,
2013-07-26 12:37:00,65.4,56.1,30.01,ESE,113,1.0,5.0,72,0.00,OVC,FEW,0.00,309.0,WeatherDisplay:10.37,2013-07-26 16:37:00,
2013-07-26 12:47:00,65.0,56.9,30.00,ESE,114,0.0,2.0,75,0.00,OVC,FEW,0.00,353.0,WeatherDisplay:10.37,2013-07-26 16:47:00,
2013-07-26 12:57:00,64.8,55.6,30.00,ESE,114,1.0,4.0,72,0.00,OVC,FEW,0.00,237.0,WeatherDisplay:10.37,2013-07-26 16:57:00,
2013-07-26 13:07:00,64.4,56.3,30.00,ESE,117,0.0,6.0,75,0.00,BKN,FEW,0.00,260.0,WeatherDisplay:10.37,2013-07-26 17:07:00,
2013-07-26 13:17:00,65.1,58.1,30.00,NE,48,0.0,4.0,78,0.00,BKN,FEW,0.00,306.0,WeatherDisplay:10.37,2013-07-26 17:17:00,
2013-07-26 13:22:00,65.4,57.3,30.00,NNW,330,1.0,3.0,75,0.00,BKN,FEW,0.00,325.0,WeatherDisplay:10.37,2013-07-26 17:22:00,
2013-07-26 13:27:00,65.5,57.7,30.00,NW,315,0.0,4.0,76,0.00,BKN,FEW,0.00,329.0,WeatherDisplay:10.37,2013-07-26 17:27:00,
2013-07-26 13:32:00,65.5,57.4,30.00,NW,324,0.0,2.0,75,0.00,BKN,FEW,0.00,288.0,WeatherDisplay:10.37,2013-07-26 17:32:00,
2013-07-26 13:37:00,65.5,57.0,30.00,NW,321,1.0,5.0,74,0.00,BKN,FEW,0.00,236.0,WeatherDisplay:10.37,2013-07-26 17:37:00,
2013-07-26 13:47:00,65.4,56.9,29.98,NNE,29,1.0,4.0,74,0.00,BKN,FEW,0.00,357.0,WeatherDisplay:10.37,2013-07-26 17:47:00,
2013-07-26 13:52:00,65.4,56.9,29.98,North,10,1.0,3.0,74,0.00,BKN,FEW,0.00,355.0,WeatherDisplay:10.37,2013-07-26 17:52:00,
2013-07-26 14:07:00,65.5,57.4,29.98,North,1,0.0,4.0,75,0.00,OVC,FEW,0.00,445.0,WeatherDisplay:10.37,2013-07-26 18:07:00,
2013-07-26 14:17:00,66.1,58.0,29.98,NNW,337,1.0,5.0,75,0.00,OVC,FEW,0.00,603.0,WeatherDisplay:10.37,2013-07-26 18:17:00,
2013-07-26 14:27:00,67.0,58.4,29.97,NNW,330,0.0,3.0,74,0.00,OVC,FEW,0.00,605.0,WeatherDisplay:10.37,2013-07-26 18:27:00,
2013-07-26 14:32:00,67.3,57.6,29.97,NNW,337,1.0,6.0,71,0.00,OVC,FEW,0.00,522.0,WeatherDisplay:10.37,2013-07-26 18:32:00,
2013-07-26 14:37:00,67.5,57.8,29.97,North,350,2.0,6.0,71,0.00,OVC,FEW,0.00,496.0,WeatherDisplay:10.37,2013-07-26 18:37:00,
2013-07-26 14:42:00,67.5,57.8,29.98,North,349,1.0,6.0,71,0.00,OVC,FEW,0.00,543.0,WeatherDisplay:10.37,2013-07-26 18:42:00,
2013-07-26 14:47:00,67.3,57.6,29.98,North,354,2.0,7.0,71,0.00,OVC,FEW,0.00,691.0,WeatherDisplay:10.37,2013-07-26 18:47:00,
2013-07-26 14:52:00,67.4,58.4,29.97,North,6,1.0,5.0,73,0.00,OVC,FEW,0.00,424.0,WeatherDisplay:10.37,2013-07-26 18:52:00,
2013-07-26 14:57:00,67.5,57.8,29.97,North,354,0.0,6.0,71,0.00,OVC,FEW,0.00,452.0,WeatherDisplay:10.37,2013-07-26 18:57:00,
2013-07-26 15:07:00,67.6,58.6,29.97,North,4,0.0,5.0,73,0.00,OVC,FEW,0.00,260.0,WeatherDisplay:10.37,2013-07-26 19:07:00,
2013-07-26 15:17:00,67.1,58.9,29.97,North,358,1.0,5.0,75,0.00,OVC,FEW,0.00,274.0,WeatherDisplay:10.37,2013-07-26 19:17:00,
2013-07-26 15:22:00,67.0,58.8,29.97,NNE,12,0.0,3.0,75,0.00,OVC,FEW,0.00,255.0,WeatherDisplay:10.37,2013-07-26 19:22:00,
2013-07-26 15:32:00,67.0,58.8,29.97,North,2,0.0,7.0,75,0.00,OVC,FEW,0.00,359.0,WeatherDisplay:10.37,2013-07-26 19:32:00,
2013-07-26 15:37:00,67.2,59.0,29.97,NNE,32,1.0,5.0,75,0.00,OVC,FEW,0.00,432.0,WeatherDisplay:10.37,2013-07-26 19:37:00,
2013-07-26 15:42:00,67.2,59.0,29.96,East,79,1.0,3.0,75,0.00,OVC,FEW,0.00,446.0,WeatherDisplay:10.37,2013-07-26 19:42:00,
2013-07-26 15:52:00,67.7,59.1,29.96,North,7,2.0,5.0,74,0.00,OVC,FEW,0.00,566.0,WeatherDisplay:10.37,2013-07-26 19:52:00,
2013-07-26 15:57:00,67.7,59.1,29.96,ESE,110,1.0,4.0,74,0.00,OVC,FEW,0.00,441.0,WeatherDisplay:10.37,2013-07-26 19:57:00,
2013-07-26 16:07:00,68.1,59.5,29.96,NNE,16,1.0,5.0,74,0.00,OVC,FEW,0.00,506.0,WeatherDisplay:10.37,2013-07-26 20:07:00,
2013-07-26 16:17:00,68.8,60.2,29.97,NNE,16,1.0,6.0,74,0.00,OVC,FEW,0.00,462.0,WeatherDisplay:10.37,2013-07-26 20:17:00,
2013-07-26 16:22:00,69.0,59.6,29.96,NNE,26,2.0,6.0,72,0.00,OVC,FEW,0.00,387.0,WeatherDisplay:10.37,2013-07-26 20:22:00,
2013-07-26 16:27:00,68.7,59.7,29.96,NNE,22,0.0,5.0,73,0.00,OVC,FEW,0.00,221.0,WeatherDisplay:10.37,2013-07-26 20:27:00,
2013-07-26 16:32:00,68.4,59.8,29.96,NNE,28,0.0,3.0,74,0.00,OVC,FEW,0.00,151.0,WeatherDisplay:10.37,2013-07-26 20:32:00,
2013-07-26 16:37:00,68.1,59.5,29.96,NNE,31,1.0,4.0,74,0.00,OVC,FEW,0.00,243.0,WeatherDisplay:10.37,2013-07-26 20:37:00,
2013-07-26 16:42:00,67.5,59.3,29.96,ENE,67,0.0,2.0,75,0.00,OVC,FEW,0.00,214.0,WeatherDisplay:10.37,2013-07-26 20:42:00,
2013-07-26 16:47:00,67.1,59.3,29.96,NNE,27,1.0,5.0,76,0.00,OVC,FEW,0.00,232.0,WeatherDisplay:10.37,2013-07-26 20:47:00,
2013-07-26 16:52:00,66.8,59.3,29.96,North,2,1.0,5.0,77,0.00,OVC,FEW,0.00,262.0,WeatherDisplay:10.37,2013-07-26 20:52:00,
2013-07-26 16:57:00,66.7,59.6,29.97,North,350,2.0,4.0,78,0.00,OVC,FEW,0.00,297.0,WeatherDisplay:10.37,2013-07-26 20:57:00,
2013-07-26 17:07:00,66.3,59.3,29.96,North,4,1.0,5.0,78,0.00,OVC,FEW,0.00,311.0,WeatherDisplay:10.37,2013-07-26 21:07:00,
2013-07-26 17:17:00,66.1,59.4,29.96,NNW,341,1.0,7.0,79,0.00,OVC,FEW,0.00,232.0,WeatherDisplay:10.37,2013-07-26 21:17:00,
2013-07-26 17:22:00,66.0,59.3,29.96,NNE,16,1.0,3.0,79,0.00,OVC,FEW,0.00,250.0,WeatherDisplay:10.37,2013-07-26 21:22:00,
2013-07-26 17:27:00,66.1,60.1,29.96,NNE,22,0.0,3.0,81,0.00,OVC,FEW,0.00,269.0,WeatherDisplay:10.37,2013-07-26 21:27:00,
2013-07-26 17:32:00,66.1,60.1,29.96,North,356,0.0,5.0,81,0.00,OVC,FEW,0.00,230.0,WeatherDisplay:10.37,2013-07-26 21:32:00,
2013-07-26 17:37:00,66.0,59.6,29.96,North,352,3.0,5.0,80,0.00,OVC,FEW,0.00,211.0,WeatherDisplay:10.37,2013-07-26 21:37:00,
2013-07-26 17:42:00,65.6,59.6,29.96,North,349,0.0,3.0,81,0.00,OVC,FEW,0.00,190.0,WeatherDisplay:10.37,2013-07-26 21:42:00,
2013-07-26 17:52:00,64.9,59.3,29.96,NW,318,0.0,7.0,82,0.00,OVC,FEW,0.00,93.0,WeatherDisplay:10.37,2013-07-26 21:52:00,
2013-07-26 18:07:00,64.3,59.0,29.96,NNW,335,0.0,3.0,83,0.00,OVC,FEW,0.00,72.0,WeatherDisplay:10.37,2013-07-26 22:07:00,
2013-07-26 18:17:00,63.9,59.0,29.96,NE,49,0.0,2.0,84,0.00,OVC,FEW,0.00,84.0,WeatherDisplay:10.37,2013-07-26 22:17:00,
2013-07-26 18:22:00,63.7,58.8,29.96,ENE,69,0.0,2.0,84,0.00,OVC,FEW,0.00,69.0,WeatherDisplay:10.37,2013-07-26 22:22:00,
2013-07-26 18:27:00,63.5,58.6,29.96,East,87,0.0,3.0,84,0.00,OVC,FEW,0.00,44.0,WeatherDisplay:10.37,2013-07-26 22:27:00,
2013-07-26 18:32:00,63.4,58.5,29.96,NNE,15,1.0,5.0,84,0.00,OVC,FEW,0.00,33.0,WeatherDisplay:10.37,2013-07-26 22:32:00,
2013-07-26 18:37:00,63.3,58.7,29.97,NW,319,1.0,3.0,85,0.00,OVC,FEW,0.00,25.0,WeatherDisplay:10.37,2013-07-26 22:37:00,
2013-07-26 18:42:00,63.2,58.9,29.96,NW,320,0.0,1.0,86,0.00,OVC,FEW,0.00,26.0,WeatherDisplay:10.37,2013-07-26 22:42:00,
2013-07-26 18:47:00,63.1,58.8,29.96,NNW,334,0.0,1.0,86,0.00,OVC,FEW,0.00,28.0,WeatherDisplay:10.37,2013-07-26 22:47:00,
2013-07-26 18:52:00,63.0,58.7,29.96,NNW,335,0.0,5.0,86,0.00,OVC,FEW,0.00,28.0,WeatherDisplay:10.37,2013-07-26 22:52:00,
2013-07-26 18:57:00,62.9,58.9,29.96,NNW,333,1.0,5.0,87,0.00,OVC,FEW,0.00,23.0,WeatherDisplay:10.37,2013-07-26 22:57:00,
2013-07-26 19:07:00,62.5,58.9,29.96,NNE,23,0.0,4.0,88,0.00,FEW,FEW,0.00,19.0,WeatherDisplay:10.37,2013-07-26 23:07:00,
2013-07-26 19:17:00,62.4,58.8,29.95,NNE,14,1.0,3.0,88,0.00,FEW,FEW,0.00,12.0,WeatherDisplay:10.37,2013-07-26 23:17:00,
2013-07-26 19:22:00,62.3,58.7,29.95,North,355,0.0,3.0,88,0.00,FEW,FEW,0.00,14.0,WeatherDisplay:10.37,2013-07-26 23:22:00,
2013-07-26 19:27:00,62.1,58.2,29.95,North,356,0.0,2.0,87,0.00,FEW,FEW,0.00,14.0,WeatherDisplay:10.37,2013-07-26 23:27:00,
2013-07-26 19:32:00,62.1,58.5,29.95,North,1,1.0,3.0,88,0.00,FEW,FEW,0.00,14.0,WeatherDisplay:10.37,2013-07-26 23:32:00,
2013-07-26 19:37:00,62.0,58.4,29.95,NNW,344,0.0,5.0,88,0.00,FEW,FEW,0.00,14.0,WeatherDisplay:10.37,2013-07-26 23:37:00,
2013-07-26 19:42:00,61.9,58.6,29.95,WNW,302,0.0,5.0,89,0.00,FEW,FEW,0.00,14.0,WeatherDisplay:10.37,2013-07-26 23:42:00,
2013-07-26 19:47:00,61.8,58.5,29.95,WNW,290,0.0,4.0,89,0.00,FEW,FEW,0.00,12.0,WeatherDisplay:10.37,2013-07-26 23:47:00,
2013-07-26 19:52:00,61.7,58.4,29.95,NW,306,0.0,4.0,89,0.00,FEW,FEW,0.00,11.0,WeatherDisplay:10.37,2013-07-26 23:52:00,
2013-07-26 19:57:00,61.6,58.6,29.95,NNE,14,0.0,1.0,90,0.00,FEW,FEW,0.00,7.0,WeatherDisplay:10.37,2013-07-26 23:57:00,
2013-07-26 20:07:00,61.4,58.5,29.95,NNE,15,0.0,2.0,90,0.00,BKN,FEW,0.00,0.0,WeatherDisplay:10.37,2013-07-27 00:07:00,
2013-07-26 20:27:00,61.3,58.7,29.96,NNW,343,0.0,1.0,91,0.00,BKN,FEW,0.00,0.0,WeatherDisplay:10.37,2013-07-27 00:27:00,
2013-07-26 20:32:00,61.3,58.7,29.95,NNW,348,0.0,4.0,91,0.00,BKN,FEW,0.00,0.0,WeatherDisplay:10.37,2013-07-27 00:32:00,
2013-07-26 20:42:00,61.2,58.6,29.96,NNW,328,1.0,4.0,91,0.00,BKN,FEW,0.00,0.0,WeatherDisplay:10.37,2013-07-27 00:42:00,
2013-07-26 20:47:00,61.1,58.5,29.96,WNW,291,1.0,4.0,91,0.00,BKN,FEW,0.00,0.0,WeatherDisplay:10.37,2013-07-27 00:47:00,
2013-07-26 20:52:00,61.0,58.4,29.96,WNW,287,0.0,2.0,91,0.00,BKN,FEW,0.00,0.0,WeatherDisplay:10.37,2013-07-27 00:52:00,
2013-07-26 20:57:00,61.0,58.4,29.96,WNW,299,0.0,9.0,91,0.00,BKN,FEW,0.00,0.0,WeatherDisplay:10.37,2013-07-27 00:57:00,
2013-07-26 21:07:00,60.8,58.2,29.95,NW,315,1.0,3.0,91,0.00,CLR,FEW,0.00,0.0,WeatherDisplay:10.37,2013-07-27 01:07:00,
2013-07-26 21:17:00,60.7,58.1,29.95,NW,325,0.0,2.0,91,0.00,CLR,FEW,0.00,0.0,WeatherDisplay:10.37,2013-07-27 01:17:00,
2013-07-26 21:22:00,60.6,58.0,29.95,North,2,0.0,1.0,91,0.00,CLR,FEW,0.00,0.0,WeatherDisplay:10.37,2013-07-27 01:22:00,
2013-07-26 21:27:00,60.6,58.0,29.95,North,5,0.0,1.0,91,0.00,CLR,FEW,0.00,0.0,WeatherDisplay:10.37,2013-07-27 01:27:00,
2013-07-26 21:32:00,60.6,58.0,29.95,North,6,0.0,2.0,91,0.00,CLR,FEW,0.00,0.0,WeatherDisplay:10.37,2013-07-27 01:32:00,
2013-07-26 21:37:00,60.5,57.9,29.95,NNW,343,1.0,4.0,91,0.00,CLR,FEW,0.00,0.0,WeatherDisplay:10.37,2013-07-27 01:37:00,
2013-07-26 21:42:00,60.4,57.8,29.94,NW,305,0.0,2.0,91,0.00,CLR,FEW,0.00,0.0,WeatherDisplay:10.37,2013-07-27 01:42:00,
2013-07-26 21:47:00,60.4,57.8,29.94,WNW,301,0.0,1.0,91,0.00,CLR,FEW,0.00,0.0,WeatherDisplay:10.37,2013-07-27 01:47:00,
2013-07-26 21:52:00,60.3,58.0,29.94,NW,311,0.0,2.0,92,0.00,CLR,FEW,0.00,0.0,WeatherDisplay:10.37,2013-07-27 01:52:00,
2013-07-26 21:57:00,60.3,57.6,29.94,NW,318,0.0,1.0,91,0.00,CLR,FEW,0.00,0.0,WeatherDisplay:10.37,2013-07-27 01:57:00,
2013-07-26 22:07:00,60.2,57.9,29.94,NW,318,0.0,2.0,92,0.00,SCT,FEW,0.00,0.0,WeatherDisplay:10.37,2013-07-27 02:07:00,
2013-07-26 22:17:00,60.1,57.8,29.94,NW,317,0.0,1.0,92,0.00,SCT,FEW,0.00,0.0,WeatherDisplay:10.37,2013-07-27 02:17:00,
2013-07-26 22:22:00,60.0,57.7,29.94,NW,317,0.0,0.0,92,0.00,SCT,FEW,0.00,0.0,WeatherDisplay:10.37,2013-07-27 02:22:00,
2013-07-26 22:27:00,60.0,58.0,29.94,NW,317,0.0,1.0,93,0.00,SCT,FEW,0.00,0.0,WeatherDisplay:10.37,2013-07-27 02:27:00,
2013-07-26 22:32:00,59.9,57.6,29.94,NW,317,0.0,0.0,92,0.00,SCT,FEW,0.00,0.0,WeatherDisplay:10.37,2013-07-27 02:32:00,
2013-07-26 22:37:00,59.8,57.5,29.94,NW,317,0.0,1.0,92,0.00,SCT,FEW,0.00,0.0,WeatherDisplay:10.37,2013-07-27 02:37:00,
2013-07-26 22:42:00,59.7,57.4,29.94,NW,318,0.0,5.0,92,0.00,SCT,FEW,0.00,0.0,WeatherDisplay:10.37,2013-07-27 02:42:00,
2013-07-26 22:47:00,59.6,57.3,29.94,NW,318,0.0,3.0,92,0.00,SCT,FEW,0.00,0.0,WeatherDisplay:10.37,2013-07-27 02:47:00,
2013-07-26 22:52:00,59.4,56.8,29.94,NNW,329,1.0,5.0,91,0.00,SCT,FEW,0.00,0.0,WeatherDisplay:10.37,2013-07-27 02:52:00,
2013-07-26 22:57:00,59.3,57.0,29.94,NNW,347,0.0,2.0,92,0.00,SCT,FEW,0.00,0.0,WeatherDisplay:10.37,2013-07-27 02:57:00,
2013-07-26 23:07:00,59.0,56.4,29.94,NNW,345,1.0,2.0,91,0.00,OVC,FEW,0.00,0.0,WeatherDisplay:10.37,2013-07-27 03:07:00,
2013-07-26 23:17:00,59.0,56.4,29.94,North,350,0.0,1.0,91,0.00,OVC,FEW,0.00,0.0,WeatherDisplay:10.37,2013-07-27 03:17:00,
2013-07-26 23:22:00,59.0,56.4,29.94,North,350,0.0,1.0,91,0.00,OVC,FEW,0.00,0.0,WeatherDisplay:10.37,2013-07-27 03:22:00,
2013-07-26 23:27:00,59.0,56.4,29.94,North,350,0.0,2.0,91,0.00,OVC,FEW,0.00,0.0,WeatherDisplay:10.37,2013-07-27 03:27:00,
2013-07-26 23:32:00,59.0,56.4,29.94,NW,325,0.0,4.0,91,0.00,OVC,FEW,0.00,0.0,WeatherDisplay:10.37,2013-07-27 03:32:00,
2013-07-26 23:37:00,59.0,56.4,29.94,WNW,297,0.0,3.0,91,0.00,OVC,FEW,0.00,0.0,WeatherDisplay:10.37,2013-07-27 03:37:00,
2013-07-26 23:42:00,58.9,56.3,29.94,NNW,347,0.0,4.0,91,0.00,OVC,FEW,0.00,0.0,WeatherDisplay:10.37,2013-07-27 03:42:00,
2013-07-26 23:47:00,58.9,56.3,29.94,North,5,0.0,1.0,91,0.00,OVC,FEW,0.00,0.0,WeatherDisplay:10.37,2013-07-27 03:47:00,
2013-07-26 23:52:00,58.9,56.0,29.94,North,6,0.0,2.0,90,0.00,OVC,FEW,0.00,0.0,WeatherDisplay:10.37,2013-07-27 03:52:00,
2013-07-26 23:57:00,58.8,56.2,29.94,North,8,0.0,1.0,91,0.00,OVC,FEW,0.00,0.0,WeatherDisplay:10.37,2013-07-27 03:57:00,